Location: Hamburg
(53.5554°N, 9.9941°E)
Time: 19:09:49
(UTC+01:00)

ISS - Pass Details

Date: 04 January 2018
Orbit: 402 x 407 km, 51.6° (Epoch: 17 January)

Event Time Altitude Azimuth Distance (km) Brightness Sun altitude
Exits shadow 06:54:10 22° 253° (WSW) 941 -2.4 -13.9°
Maximum altitude 06:56:05 62° 178° (S) 461 -3.5 -13.7°
Drops below altitude 10° 06:59:21 10° 96° (E) 1,471 0.3 -13.2°
Sets 07:01:27 0° 93° (E) 2,333 1.6 -12.9°
